Weather History for KOSC - May, 2013

Change the Weather History Date:

Sunday, May 12, 2013

  Actual Average Record
Temperature  
Mean Temperature 37 °F -  
Max Temperature 42 °F 60 °F 84 °F (2004)
Min Temperature 32 °F 42 °F 32 °F (2013)
Degree Days  
Heating Degree Days 28    
Moisture  
Dew Point 28 °F    
Average Humidity 71    
Maximum Humidity 98    
Minimum Humidity 46    
Precipitation  
Precipitation 0.00 in - - ()
Sea Level Pressure  
Sea Level Pressure 29.82 in    
Wind  
Wind Speed 16 mph (West)    
Max Wind Speed 32 mph    
Max Gust Speed 41 mph    
Visibility 10 miles    
Events Rain    
Averages and records for this station are not official NWS values.
T = Trace of Precipitation, MM = Missing Value Source: NWS Daily Summary

Daily Weather History Graph

Daily Weather History Graph

Search for Another Location

Airport or City:

Trip Planner

Search our weather history database for the weather conditions in past years. The results will help you decide how hot, cold, wet, or windy it might be!

Date:

Astronomy

May. 12, 2013 Rise Set
Actual Time 6:09 AM EDT 8:51 PM EDT
Civil Twilight 5:35 AM EDT 9:24 PM EDT
Nautical Twilight 4:53 AM EDT 10:07 PM EDT
Astronomical Twilight 4:05 AM EDT 10:55 PM EDT
Moon 8:02 AM EDT (5/12) 11:18 PM EDT (5/12)
Length of Visible Light 15h 48m
Length of Day
14h 41m
Waxing Crescent, 6% of the Moon is Illuminated
May 12
Waxing Crescent
May 18
First Quarter
May 25
Full
May 31
Last Quarter
Jun 8
New

Hourly Weather History & Observations

Time (EDT) Temp. Windchill Dew Point Humidity Pressure Visibility Wind Dir Wind Speed Gust Speed Precip Events Conditions
12:14 AM 34.0 °F 26.6 °F 32.2 °F 93% 29.76 in 10.0 mi SW 9.2 mph - N/A   Clear
12:34 AM 33.4 °F 27.3 °F 32.0 °F 94% 29.75 in 10.0 mi SW 6.9 mph - N/A   Clear
12:54 AM 32.9 °F 26.7 °F 32.0 °F 96% 29.75 in 10.0 mi SW 6.9 mph - N/A   Scattered Clouds
1:14 AM 32.4 °F 24.0 °F 31.8 °F 98% 29.75 in 10.0 mi WSW 10.4 mph - N/A   Scattered Clouds
1:34 AM 32.9 °F 24.7 °F 32.0 °F 96% 29.75 in 10.0 mi SW 10.4 mph - N/A   Clear
1:54 AM 33.1 °F 26.1 °F 31.8 °F 95% 29.74 in 10.0 mi SW 8.1 mph - N/A   Clear
2:14 AM 33.3 °F 25.1 °F 31.8 °F 94% 29.74 in 10.0 mi SW 10.4 mph - N/A   Clear
2:34 AM 33.1 °F 24.4 °F 31.6 °F 94% 29.73 in 10.0 mi SW 11.5 mph - N/A   Clear
2:54 AM 34.0 °F 25.5 °F 32.0 °F 92% 29.73 in 10.0 mi SW 11.5 mph - N/A   Scattered Clouds
3:14 AM 34.5 °F 26.2 °F 32.0 °F 90% 29.72 in 10.0 mi WSW 11.5 mph - N/A   Overcast
3:34 AM 35.2 °F 25.8 °F 32.2 °F 89% 29.72 in 10.0 mi WSW 15.0 mph - N/A   Overcast
3:54 AM 35.6 °F 25.9 °F 32.2 °F 87% 29.71 in 10.0 mi WSW 16.1 mph 25.3 mph N/A   Mostly Cloudy
4:14 AM 35.6 °F 24.5 °F 32.2 °F 87% 29.70 in 10.0 mi WSW 20.7 mph 28.8 mph N/A   Overcast
4:34 AM 36.0 °F 25.3 °F 32.0 °F 86% 29.70 in 10.0 mi West 19.6 mph 27.6 mph N/A   Overcast
4:54 AM 35.6 °F 24.8 °F 32.0 °F 87% 29.69 in 10.0 mi West 19.6 mph 25.3 mph N/A   Scattered Clouds
5:14 AM 35.8 °F 25.4 °F 32.0 °F 86% 29.70 in 10.0 mi West 18.4 mph 25.3 mph N/A   Mostly Cloudy
5:34 AM 36.1 °F 26.2 °F 32.0 °F 85% 29.69 in 10.0 mi West 17.3 mph 24.2 mph N/A   Overcast
5:54 AM 36.1 °F 25.5 °F 32.2 °F 86% 29.69 in 10.0 mi West 19.6 mph 27.6 mph N/A   Overcast
6:14 AM 35.6 °F 25.2 °F 32.9 °F 90% 29.70 in 10.0 mi West 18.4 mph 25.3 mph N/A Rain Light Rain
6:34 AM 35.6 °F 25.5 °F 32.9 °F 90% 29.70 in 10.0 mi West 17.3 mph 27.6 mph N/A Rain Rain
6:54 AM 35.2 °F 26.2 °F 32.9 °F 91% 29.71 in 7.0 mi West 13.8 mph 25.3 mph N/A Rain Rain
7:14 AM 35.6 °F 25.9 °F 33.1 °F 91% 29.72 in 10.0 mi West 16.1 mph 23.0 mph N/A   Light Drizzle
7:34 AM 36.0 °F 26.3 °F 33.4 °F 91% 29.73 in 10.0 mi West 16.1 mph 21.9 mph N/A   Overcast
7:54 AM 36.1 °F 27.7 °F 33.1 °F 89% 29.74 in 10.0 mi WNW 12.7 mph 21.9 mph N/A   Overcast
8:14 AM 36.9 °F 27.1 °F 32.5 °F 84% 29.75 in 10.0 mi WNW 17.3 mph 23.0 mph N/A   Overcast
8:34 AM 37.8 °F 27.7 °F 32.2 °F 80% 29.75 in 10.0 mi WNW 19.6 mph 27.6 mph N/A   Overcast
8:54 AM 37.6 °F 27.4 °F 31.8 °F 80% 29.75 in 10.0 mi WNW 19.6 mph 33.4 mph N/A   Overcast
9:14 AM 38.3 °F 27.6 °F 30.7 °F 74% 29.76 in 10.0 mi WNW 23.0 mph 33.4 mph N/A   Overcast
9:34 AM 39.6 °F 30.0 °F 30.2 °F 69% 29.76 in 10.0 mi WNW 19.6 mph 31.1 mph N/A   Mostly Cloudy
9:54 AM 41.5 °F 31.6 °F 29.5 °F 62% 29.76 in 10.0 mi WNW 24.2 mph 31.1 mph N/A   Scattered Clouds
10:13 AM 41.2 °F 30.7 °F 28.2 °F 60% 29.77 in 10.0 mi West 26.5 mph 34.5 mph N/A   Mostly Cloudy
10:22 AM 42.1 °F 32.1 °F 27.7 °F 57% 29.77 in 10.0 mi WNW 25.3 mph 39.1 mph N/A   Mostly Cloudy
11:05 AM 39.2 °F 29.0 °F 32.0 °F 75% 29.79 in 7.0 mi NW 21.9 mph 27.6 mph N/A   Overcast
11:25 AM 37.4 °F 26.9 °F 35.6 °F 93% 29.80 in 4.0 mi WNW 20.7 mph 25.3 mph N/A   Overcast
11:45 AM 41.0 °F 30.7 °F 33.8 °F 76% 29.81 in 7.0 mi WNW 25.3 mph 40.3 mph N/A   Mostly Cloudy
12:05 PM 39.2 °F 28.5 °F 28.4 °F 65% 29.81 in 10.0 mi WNW 24.2 mph 36.8 mph N/A   Overcast
12:25 PM 41.0 °F 31.4 °F 28.4 °F 61% 29.81 in 10.0 mi WNW 21.9 mph 31.1 mph N/A   Overcast
12:45 PM 41.0 °F 30.7 °F 30.2 °F 65% 29.81 in 10.0 mi WNW 25.3 mph 33.4 mph N/A   Overcast
1:05 PM 39.2 °F 28.5 °F 28.4 °F 65% 29.83 in 10.0 mi WNW 24.2 mph 38.0 mph N/A   Overcast
1:25 PM 39.2 °F 28.0 °F 26.6 °F 61% 29.84 in 10.0 mi West 26.5 mph 38.0 mph N/A   Overcast
1:45 PM 41.0 °F 30.2 °F 26.6 °F 57% 29.83 in 10.0 mi WNW 27.6 mph 38.0 mph N/A   Overcast
2:05 PM 41.0 °F 29.8 °F 26.6 °F 57% 29.83 in 10.0 mi WNW 29.9 mph 38.0 mph N/A   Overcast
2:25 PM 42.8 °F 31.9 °F 26.6 °F 53% 29.84 in 10.0 mi West 32.2 mph 40.3 mph N/A   Overcast
2:45 PM 42.8 °F 34.0 °F 24.8 °F 49% 29.85 in 10.0 mi WNW 20.7 mph 35.7 mph N/A   Overcast
3:05 PM 42.8 °F 33.3 °F 26.6 °F 53% 29.85 in 10.0 mi WNW 24.2 mph 41.4 mph N/A   Overcast
3:25 PM 42.8 °F 33.1 °F 24.8 °F 49% 29.86 in 10.0 mi WNW 25.3 mph 33.4 mph N/A   Overcast
3:45 PM 42.8 °F 33.3 °F 26.6 °F 53% 29.87 in 10.0 mi WNW 24.2 mph 36.8 mph N/A   Overcast
4:05 PM 42.8 °F 33.1 °F 24.8 °F 49% 29.87 in 10.0 mi West 25.3 mph 33.4 mph N/A   Overcast
4:25 PM 42.8 °F 33.5 °F 23.0 °F 46% 29.87 in 10.0 mi WNW 23.0 mph 39.1 mph N/A   Overcast
4:45 PM 42.8 °F 32.7 °F 23.0 °F 46% 29.88 in 10.0 mi West 27.6 mph 35.7 mph N/A   Overcast
5:05 PM 42.8 °F 34.5 °F 23.0 °F 46% 29.89 in 10.0 mi WNW 18.4 mph 33.4 mph N/A   Overcast
5:25 PM 42.8 °F 35.1 °F 23.0 °F 46% 29.90 in 10.0 mi WNW 16.1 mph 34.5 mph N/A   Overcast
5:45 PM 41.0 °F 31.9 °F 23.0 °F 49% 29.90 in 10.0 mi NW 19.6 mph 28.8 mph N/A   Overcast
6:05 PM 41.0 °F 32.5 °F 23.0 °F 49% 29.92 in 10.0 mi WNW 17.3 mph 31.1 mph N/A   Overcast
6:25 PM 41.0 °F 32.2 °F 23.0 °F 49% 29.93 in 10.0 mi WNW 18.4 mph 32.2 mph N/A   Overcast
6:45 PM 39.2 °F 29.3 °F 23.0 °F 52% 29.94 in 10.0 mi WNW 20.7 mph 29.9 mph N/A   Overcast
7:05 PM 39.2 °F 29.3 °F 23.0 °F 52% 29.95 in 10.0 mi WNW 20.7 mph 26.5 mph N/A   Overcast
8:05 PM 39.2 °F 30.5 °F 21.2 °F 49% 29.97 in 10.0 mi NW 16.1 mph 31.1 mph N/A   Overcast
8:25 PM 37.4 °F 29.3 °F 23.0 °F 56% 29.98 in 10.0 mi WNW 12.7 mph 24.2 mph N/A   Overcast
8:45 PM 37.4 °F 26.9 °F 23.0 °F 56% 29.98 in 10.0 mi WNW 20.7 mph 27.6 mph N/A   Overcast
9:05 PM 37.4 °F 27.5 °F 23.0 °F 56% 29.99 in 10.0 mi NW 18.4 mph 25.3 mph N/A   Overcast
9:25 PM 37.4 °F 28.9 °F 23.0 °F 56% 30.00 in 10.0 mi NW 13.8 mph 19.6 mph N/A   Overcast
9:45 PM 35.6 °F 26.2 °F 24.8 °F 65% 30.00 in 10.0 mi WNW 15.0 mph 19.6 mph N/A   Overcast
10:05 PM 35.6 °F 28.6 °F 23.0 °F 60% 30.01 in 10.0 mi WNW 9.2 mph 17.3 mph N/A   Scattered Clouds
10:25 PM 33.8 °F 25.8 °F 23.0 °F 65% 30.01 in 10.0 mi WNW 10.4 mph - N/A   Scattered Clouds
10:45 PM 33.8 °F 27.0 °F 23.0 °F 65% 30.02 in 10.0 mi WNW 8.1 mph - N/A   Mostly Cloudy
11:05 PM 33.8 °F 27.7 °F 23.0 °F 65% 30.02 in 10.0 mi WNW 6.9 mph - N/A   Overcast
11:25 PM 33.8 °F 27.7 °F 23.0 °F 65% 30.02 in 10.0 mi WNW 6.9 mph - N/A   Overcast
11:45 PM 32.0 °F 25.6 °F 23.0 °F 69% 30.02 in 10.0 mi WNW 6.9 mph - N/A   Overcast